www.pogodaiklimat.ru

Погода и климат >> Архив погоды >> Индонезия >> Аэропорт Султан Хасануддин


ПОГОДА в Аэропорту Султана Хасануддин

  • Прогноз погоды в Аэропорту Султана Хасануддин
  • Монитор погоды в Аэропорту Султана Хасануддин

АРХИВ ПОГОДЫ в Аэропорту Султана Хасануддин

Время (UTC), дата Ветер
(напр.,м/с)
 
Видим.   Явления Облачность Т
(С)
Тd
(С)
f
(%)
Тe
(С)
Тes
(С)
Комфортность P
(гПа)
Po
(гПа)
Тmin
(С)
Tmax
(С)
R
(мм)
R24
(мм)
S
(см)
03 18.06 Ю 3 10 км 3/1 600 м
[Cu hum Ac trans]
+30.6 +21.7 59 +39 +50 очень
душно
1011.7 1010.0
06 18.06 З 3 10 км 4/1 570 м
[Cu med, cong Ac trans Ci fib]
+32.5 +20.8 50 +40 +48 очень
душно
1009.1 1007.4
09 18.06 С 1 10 км 4/1 570 м
[Cu med, cong Ac lent Ci fib]
+31.2 +21.8 57 +40 +40 очень
душно
1009.1 1007.4
12 18.06 штиль 0 8000 м 4/1 600 м
[Cu med, cong Ac trans Ci fib]
+27.6 +23.2 77 +37 +37 очень
душно
1010.4 1008.7 +33.8
15 18.06 В 2 8000 м 4/1 600 м
[Cu med, cong Ac trans Ci fib]
+25.8 +22.2 81 +34 +34 очень
душно
1011.0 1009.3
18 18.06 ЮВ 1 8000 м 3/1 570 м
[Cu med, cong Ac trans Ci fib]
+24.6 +21.8 84 +31 +31 очень
душно
1010.6 1009.0
21 18.06 Ю 1 8000 м 3/1 570 м
[Cu med, cong Ac trans Ci fib]
+23.8 +21.9 89 +31 +31 очень
душно
1010.4 1008.7
00 19.06 Ю 1 10 км 4/1 570 м
[Cu med, cong Ac trans Ci sp]
+25.4 +22.7 85 +33 +37 очень
душно
1011.5 1009.8 +22.8 201
03 19.06 ЮЗ 2 10 км 4/1 570 м
[Cu med, cong Ac trans Ci sp]
+31.0 +22.3 60 +40 +53 опасность
солнечного
удара
1010.8 1009.1
06 19.06 З 3 10 км 5/3 570 м
[Cu med, cong Ac trans Ci fib]
+32.0 +23.7 62 +43 +50 опасность
перегрева
1008.7 1007.0
09 19.06 З 2 10 км 4/3 570 м
[Cu med, cong Ac trans Ci fib]
+30.2 +22.7 64 +40 +40 очень
душно
1008.9 1007.2
12 19.06 В 2 8000 м 4/3 570 м
[Sc diur, vesp Ac trans Ci fib]
+26.3 +21.6 75 +34 +34 очень
душно
1010.6 1008.9 +32.9
15 19.06 В 3 8000 м 3/1 600 м
[Sc diur, vesp Ac trans Ci fib]
+24.5 +20.6 79 +30 +30 очень
душно
1011.1 1009.4
18 19.06 ЮВ 2 8000 м 4/3 600 м
[Sc diur, vesp Ac trans Ci fib]
+23.5 +20.8 85 +29 +29 душно 1010.8 1009.1
21 19.06 ЮВ 2 8000 м 4/3 600 м
[Sc diur, vesp Ac trans Ci fib]
+22.5 +20.1 86 +29 +29 очень
душно
1010.8 1009.1
00 20.06 В 2 10 км 4/1 570 м
[Cu med, cong Ac trans Ci fib]
+24.9 +20.4 76 +31 +34 очень
душно
1011.9 1010.2 +22.2
03 20.06 СВ 1 10 км 5/1 570 м
[Cu med, cong Ac trans Ci fib]
+31.7 +21.5 55 +40 +53 опасность
солнечного
удара
1011.4 1009.7
06 20.06 СЗ 3 10 км 5/3 600 м
[Cu med, cong Ac trans Ci fib]
+32.0 +22.4 57 +41 +48 опасность
перегрева
1009.8 1008.1
09 20.06 СЗ 2 10 км 5/3 600 м
[Cu med, cong Ac trans Ci fib]
+31.0 +22.2 60 +40 +41 очень
душно
1009.5 1007.8
12 20.06 В 1 8000 м 4/1 570 м
[Cu med, cong Ac trans Ci sp]
+27.0 +24.3 85 +38 +38 очень
душно
1010.8 1009.1 +32.8
15 20.06 В 2 8000 м 4/1 570 м
[Cu med, cong Ac trans Ci sp]
+25.2 +21.5 80 +32 +32 очень
душно
1011.0 1009.3
18 20.06 В 2 8000 м 4/1 570 м
[Cu med, cong Ac trans Ci sp]
+24.0 +21.2 84 +30 +30 очень
душно
1009.7 1008.2
21 20.06 ЮВ 2 8000 м 4/1 570 м
[Cu med, cong Ac trans Ci sp]
+22.6 +20.0 85 +29 +29 очень
душно
1009.7 1008.1
00 21.06 В 2 10 км 8/1 570 м
[Cu med, cong Ac trans Ci fib]
+26.7 +21.9 75 +34 +37 очень
душно
1010.6 1009.0 +22.0
03 21.06 СВ 2 10 км 5/1 570 м
[Cu med, cong Ac trans Ci fib]
+31.5 +22.9 60 +41 +53 опасность
перегрева
1009.5 1007.9
06 21.06 СЗ 2 10 км 4/3 570 м
[Cu med, cong Ac trans Ci fib]
+33.0 +22.9 55 +43 +52 опасность
перегрева
1007.0 1005.3
09 21.06 СЗ 2 10 км 4/3 570 м
[Cu med, cong Ac trans Ci fib]
+29.6 +22.5 66 +39 +40 очень
душно
1007.8 1005.9
12 21.06 СВ 2 8000 м 3/1 570 м
[Cu med, cong Ac trans Ci fib]
+27.4 +23.3 78 +37 +37 очень
душно
1009.5 1007.8 +33.4
15 21.06 СВ 1 8000 м 3/1 570 м
[Cu med, cong Ac trans Ci fib]
+25.7 +22.4 82 +34 +34 очень
душно
1010.6 1009.0
18 21.06 Ю 1 8000 м 4/1 570 м
[Cu med, cong Ac trans Ci fib]
+24.1 +21.9 88 +31 +31 очень
душно
1009.9 1008.3
21 21.06 Ю 1 8000 м 5/1 570 м
[Cu med, cong Ac lent Ci fib]
+23.2 +21.3 89 +31 +31 очень
душно
1009.6 1008.0
00 22.06 В 2 10 км туман поземный 4/4 600 м
[]
+26.2 +22.6 81 +35 +37 очень
душно
1010.6 1008.9 +22.0
03 22.06 ЮВ 2 10 км 4/3 600 м
[Cu med, cong Ac trans Ci fib]
+31.6 +23.0 60 +42 +52 опасность
перегрева
1009.1 1007.4
06 22.06 З 3 10 км 4/3 570 м
[Cu hum Ci fib]
+32.9 +23.6 58 +44 +52 опасность
перегрева
1006.8 1005.1
09 22.06 СЗ 1 10 км 4/3 570 м
[Cu hum Ci fib]
+31.4 +23.6 63 +42 +43 опасность
перегрева
1007.0 1005.3
12 22.06 В 2 8000 м 3/1 600 м
[Cu hum Ac trans Ci fib]
+27.8 +22.1 71 +36 +36 очень
душно
1008.6 1006.9 +33.2
15 22.06 ЮЗ 1 8000 м 3/1 600 м
[Cu hum Ac trans Ci fib]
+26.0 +22.4 81 +34 +34 очень
душно
1009.7 1008.0
18 22.06 штиль 0 8000 м 3/1 600 м
[Cu hum Ac trans Ci fib]
+24.8 +22.6 88 +33 +33 очень
душно
1009.4 1007.8
21 22.06 ЮВ 2 8000 м 3/1 600 м
[Cu hum Ci fib]
+24.0 +22.1 89 +31 +31 очень
душно
1010.0 1008.3
00 23.06 В 2 10 км 3/3 600 м
[Cu hum]
+26.5 +22.1 77 +34 +37 очень
душно
1011.0 1009.3 +23.3
03 23.06 СЗ 1 10 км 3/3 600 м
[Cu hum]
+32.1 +22.0 55 +41 +54 опасность
перегрева
1010.2 1008.5
06 23.06 З 3 10 км 4/3 570 м
[Cu med, cong Ac trans Ci fib]
+32.6 +22.7 56 +42 +49 опасность
перегрева
1008.1 1006.5
09 23.06 З 3 10 км 8/3 570 м
[Cu med, cong Ac trans Ci sp]
+30.2 +23.2 66 +40 +41 очень
душно
1008.4 1006.7
12 23.06 В 17 8000 м 6/1 570 м
[Cu med, cong Ac trans Ci fib]
+27.8 +22.6 73 +37 +37 очень
душно
1010.0 1008.3 +33.6
15 23.06 В 1 8000 м 5/1 570 м
[Cu med, cong Ac trans Ci fib]
+25.8 +22.2 81 +34 +34 очень
душно
1010.9 1009.2
18 23.06 ЮВ 1 8000 м 4/1 570 м
[Cu med, cong Ac trans Ci fib]
+24.4 +21.6 84 +31 +31 очень
душно
1010.2 1008.5
21 23.06 Ю 1 8000 м 4/1 570 м
[Cu med, cong Ac trans Ci fib]
+23.2 +21.3 89 +31 +31 очень
душно
1011.1 1009.4
00 24.06 Ю 1 10 км 3/1 570 м
[Cu med, cong Ac trans Ci fib]
+23.8 +21.6 87 +30 +34 очень
душно
1012.7 1011.0 +22.2
03 24.06 В 2 10 км 3/1 570 м
[Cu med, cong Ac trans Ci fib]
+31.6 +21.6 55 +40 +53 опасность
солнечного
удара
1011.8 1010.1
06 24.06 СВ 4 10 км 3/1 570 м
[Cu med, cong Ac trans Ci fib]
+33.6 +20.7 47 +41 +47 опасность
перегрева
1009.8 1008.1
09 24.06 СВ 3 10 км 3/1 570 м
[Cu med, cong Ac trans]
+31.1 +21.1 55 +39 +39 очень
душно
1009.7 1008.1
12 24.06 В 2 8000 м 1/1 600 м
[Cu hum Ac trans]
+27.6 +20.9 67 +35 +35 очень
душно
1011.3 1009.6 +33.6
15 24.06 штиль 0 8000 м 1/1 600 м
[Cu hum]
+25.2 +21.4 79 +32 +32 очень
душно
1011.9 1010.2
18 24.06 З 1 8000 м 1/1 600 м
[Cu hum]
+23.5 +20.5 83 +29 +29 душно 1011.5 1009.8
21 24.06 Ю 1 8000 м 3/1 600 м
[Sc diur, vesp Ci fib]
+22.5 +20.6 89 +29 +29 очень
душно
1012.3 1010.6
00 25.06 В 1 10 км 1/1 600 м
[Cu hum Ac trans]
+25.1 +22.2 84 +33 +37 очень
душно
1014.0 1012.3 +22.1

 

Местоположение метеостанции Аэропорт Султан Хасануддин (Индонезия): широта -5.07 долгота 119.55 высота над уровнем моря 14 м.

В архиве по умолчанию представлена погода в Аэропорту Султана Хасануддин за последнюю неделю. Архивные данные за месяц целиком и за предыдущие месяцы, начиная с января 2011 года, Вы можете получить, выбрав интересующий диапазон дат из раскрывающегося списка и нажав кнопку "Ввод!".


*Определитесь, кто Вы:
робот инопланетянин человек

Внимание! Время в таблицах - всемирное. Для получения местного времени необходимо прибавить поправку, которая равна 8 ч.

Смотрите также архив погоды в соседних городах и на ближайших метеорологических станциях:

Погода в Колаке (Индонезия) (236 км)
Погода в Маджене (Индонезия) (292 км)
Погода в Масамбе (Индонезия) (294 км)
Погода в Кендари (Индонезия) (337 км)
Погода в Бау-Бау (Индонезия) (342 км)
Погода в Биме (Индонезия) (398 км)
Погода в Рутенге (Индонезия) (408 км)
Погода в Котабару (Индонезия) (414 км)
Погода в Посо (Индонезия) (431 км)
Погода в Сумбава-Бесаре (Индонезия) (448 км)

Пояснения к столбцам:

Ветер - указаны скорость ветра в м/с - средняя за 10 мин, порывы в срок и между сроками (в фигурных скобках) и направление, откуда дует ветер: С - северный, СВ - северо-восточный, В - восточный, ЮВ - юго-восточный, Ю - южный, ЮЗ - юго-западный, З - западный, СЗ - северо-западный.
Видимость - горизонтальная дальность видимости в метрах или километрах. При видимости от 1 до 10 км при отсутствии осадков обычно наблюдается дымка, при ухудшении видимости до 1 км и менее - туман. В сухую погоду видимость может ухудшаться дымом, пылью или мглою.
Явления - указаны атмосферные явления, наблюдавшиеся в срок или в последний час перед сроком; фигурными скобками обозначены явления, наблюдавшиеся между сроками (за 1-3 часа до срока); квадратными скобками обозначены град или гололедные отложения с указанием их диаметра в мм.
Облачность - указаны через наклонную черту общая и нижняя облачность в баллах и высота нижней границы облаков в метрах; квадратными скобками обозначены формы облаков: Ci - перистые, Cs - перисто-слоистые, Cc - перисто-кучевые, Ac - высококучевые, As - высокослоистые, Sc - слоисто-кучевые, Ns - слоисто-дождевые, Cu - кучевые, Cb - кучево-дождевые. Подробнее классификацию облаков см. в Атласе облаков (PDF).
T - Температура воздуха - температура, измеренная на высоте 2 м над землей.
Td - Температура точки росы - температура, при понижении до которой содержащийся в воздухе водяной пар достигнет насыщения.
f - Относительная влажность воздуха - влажноcть воздуха, измеренная на высоте 2 м над землей.
Te - Эффективная температура - температура, которую ощущает одетый по сезону человек в тени. Характеристика душности погоды. При расчете учитывается влияние влажности воздуха и скорости ветра на теплоощущения человека.
Tes - Эффективная температура на солнце - температура, которую ощущает человек, с поправкой на солнечный нагрев. Характеристика знойности погоды. Зависит от высоты солнца над горизонтом, облачности и скорости ветра. Ночью, в пасмурную погоду, а также при ветре 12 м/с и более поправка равна нулю.
P - Атмосферное давление - приведенное к уровню моря атмосферное давление.
Po - Атмосферное давление - измеренное на уровне метеостанции атмосферное давление.
Tmin - Минимальная температура - минимум температуры воздуха на высоте 2 м над землей.
Tmax - Максимальная температура - максимум температуры воздуха на высоте 2 м над землей.
R - Количество осадков - Количество выпавших осадков за период времени, мм. При наведении курсора мыши на число - период времени, за который выпало указанное количество осадков.
R24 - Количество осадков - Количество выпавших осадков за 24 часа, мм.
S - Снежный покров - Высота снежного покрова, см. При наведении курсора мыши на число - состояние снежного покрова и степень покрытия местности в баллах.